Regional Weather Roundup
Issued by NWS

Home | Current Version | Previous Version | Graphics & Text | Print | Product List | Glossary On
Versions: 1 2 3 4 5 6 7 8 9 10 11 12 13 14 15 16 17 18 19 20 21 22 23 24 25 26 27 28 29 30 31 32 33 34 35 36 37 38 39 40 41 42 43 44 45 46 47 48 49 50
219
ASUS43 KMPX 300310
RWRMN
WEATHER ROUNDUP FOR MINNESOTA
NATIONAL WEATHER SERVICE TWIN CITIES/CHANHASSEN MN
1000 PM CDT WED MAR 29 2017


NOTE: "FAIR" INDICATES FEW OR NO CLOUDS BELOW 12,000 FEET WITH NO
SIGNIFICANT WEATHER AND/OR OBSTRUCTIONS TO VISIBILITY. N/A MEANS
CURRENT SKY AND/OR WEATHER CONDITIONS ARE NOT AVAILABLE.

MNZ060>063-068>070-300400-
   Twin Cities Metro

CITY           SKY/WX    TMP DP  RH WIND       PRES   REMARKS
TWIN CITIES    CLOUDY    43  37  79 E15       30.11F
ST PAUL        CLOUDY    43  38  82 E13       30.13F
CRYSTAL        LGT RAIN  43  37  79 E9        30.11F
BLAINE         DRIZZLE   45  39  81 E10       30.12F
LAKEVILLE      CLOUDY    39  39 100 E13       30.09F
EDEN PRAIRIE   CLOUDY    43  38  82 E14G26    30.09F
SOUTH ST PAUL  CLOUDY    43  37  79 E7        30.12F
LAKE ELMO      CLOUDY    43  37  81 E10G17    30.13F
$$
MNZ001>005-007-008-013>017-022>024-027-028-300400-
   Northwest Minnesota

CITY           SKY/WX    TMP DP  RH WIND       PRES   REMARKS
BEMIDJI        PTCLDY    41  32  69 SE8       30.09S
HALLOCK        CLOUDY    48  41  76 S18       29.96S
ROSEAU         CLOUDY    46  37  71 S10       30.01S
WARROAD        CLOUDY    48  36  61 S14       30.02S
THIEF RVR FALL   N/A    N/A N/A N/A MISG        N/A
CROOKSTON      CLEAR     46  37  71 S18       30.03S
FOSSTON        CLEAR     43  30  61 S9        30.07S
DETROIT LAKES  CLOUDY    43  34  70 S6        30.10S
MOORHEAD       CLEAR     45  37  76 S14       30.08S
PARK RAPIDS    CLOUDY    41  30  65 SE8       30.09F
MAHNOMEN       FAIR      40  32  73 S7        30.07S
$$
MNZ006-009>011-018-025>026-300400-
   North Central Minnesota

CITY           SKY/WX    TMP DP  RH WIND       PRES   REMARKS
BAUDETTE       PTCLDY    45  32  60 SE10      30.05S
FLAG ISLAND    PTCLDY    37  30  75 S12       30.02S
INTL FALLS     CLEAR     40  29  64 SE8       30.11S
WASKISH        CLEAR     43  34  70 SE6       30.08F
BIG FORK       CLOUDY    39  30  70 SE5       30.13S
LONGVILLE      PTCLDY    37  30  75 SE6       30.12F
GRAND RAPIDS   CLOUDY    35  29  78 SE5       30.16F WCI  31
CRANE LAKE     PTCLDY    34  25  69 CALM      30.18S
ORR            PTCLDY    36  25  64 CALM      30.13S
COOK           PTCLDY    36  27  69 SE7       30.16S
WALKER         FAIR      41  30  63 SE3       30.10F
$$
MNZ012-019>021-037-300400-
   Northeast Minnesota

CITY           SKY/WX    TMP DP  RH WIND       PRES   REMARKS
DULUTH         CLOUDY    31  28  89 E10       30.17F WCI  22
ELY            CLOUDY    30  23  74 SE5       30.18F WCI  25
HIBBING        CLOUDY    31  26  82 SE3       30.17S
EVELETH        CLOUDY    32  23  68 CALM      30.18F
DULUTH HARBOR  MOCLDY    36  32  87 NE17      30.23S
TWO HARBORS    PTCLDY    34  28  80 NE7       30.19F WCI  28
SILVER BAY     PTCLDY    32  28  86 NE8       30.20F WCI  25
GRAND MARAIS     N/A     34  24  67 NE10      30.25F WCI  26
G MARAIS ARPRT CLOUDY    28  18  64 NE6       30.21S WCI  22
$$
MNZ029>031-032-039>041-046>048-054>057-064-300400-
   West Central Minnesota

CITY           SKY/WX    TMP DP  RH WIND       PRES   REMARKS
FERGUS FALLS   CLEAR     39  34  81 S8        30.13S
WHEATON        PTCLDY    39  36  87 SE5       30.12F
MORRIS         MOCLDY    39  37  93 S6        30.10S
ALEXANDRIA     PTCLDY    40  35  83 S5        30.11F
ELBOW LAKE     FAIR      35  33  94 S7        30.11S WCI  29
WADENA         CLOUDY    37  32  81 CALM      30.10F
GLENWOOD       CLOUDY    37  36  93 SE5       30.10F
APPLETON       CLOUDY    43  37  81 CALM      30.10F
BENSON         CLOUDY    45  36  70 S6        30.12S
ORTONVILLE     CLOUDY    43  37  81 SE6       30.09F
MADISON        CLOUDY    45  39  81 SE10      30.09S
WILLMAR        CLOUDY    43  39  87 E9        30.11F
$$
MNZ033>034-036-042>043-049>051-058-059-300400-
   Central Minnesota

CITY           SKY/WX    TMP DP  RH WIND       PRES   REMARKS
ST CLOUD       CLOUDY    43  37  79 SE5       30.11F
SAUK CENTRE    FAIR      38  36  90 CALM      30.10F
PAYNESVILLE    CLOUDY    42  38  88 SE5       30.10F
AITKIN         CLOUDY    36  28  75 E6        30.13F
PINE RIVER     PTCLDY    39  32  75 SE3       30.15S
BRAINERD       PTCLDY    39  32  76 E5        30.12F
STAPLES        CLOUDY    39  32  75 CALM      30.11F
LONG PRAIRIE   FAIR      37  34  87 CALM      30.11F
LITTLE FALLS   MOCLDY    37  32  81 CALM      30.11F
LITCHFIELD     CLOUDY    43  41  93 E8        30.10F
BUFFALO        DRIZZLE   42  39  89 E5        30.12F
MAPLE LAKE     CLOUDY    43  41  91 E5        30.12F
HUTCHINSON     CLOUDY    42  40  93 E12G20    30.10F
$$
MNZ037-044-045-052-053-300400-
   East Central Minnesota

CITY           SKY/WX    TMP DP  RH WIND       PRES   REMARKS
PRINCETON      CLOUDY    45  36  70 CALM      30.12F
MORA           MOCLDY    36  30  80 NE5       30.16F
CAMBRIDGE      CLOUDY    45  34  65 CALM      30.11F
RUSH CITY      PTCLDY    39  32  75 N5        30.14S
MOOSE LAKE     CLOUDY    32  30  93 NE6       30.15F WCI  26
CLOQUET        CLOUDY    32  28  86 E7        30.17F WCI  26
MCGREGOR       PTCLDY    32  30  93 E5        30.16S WCI  27
$$
MNZ071>073-080-081-089-090-097-098-300400-
   Southwest Minnesota

CITY           SKY/WX    TMP DP  RH WIND       PRES   REMARKS
MONTEVIDEO     CLOUDY    41  37  87 S8        30.10S
GRANITE FALLS  CLOUDY    42  39  87 E9        30.11R
CANBY          CLOUDY    42  39  87 E8        30.09F
MARSHALL       CLOUDY    40  37  89 SE12      30.08R
REDWOOD FALLS  CLOUDY    41  37  86 E10G22    30.08S
OLIVIA         CLOUDY    41  37  87 E7G16     30.08F
PIPESTONE      CLOUDY    37  34  87 E14       30.02S
WINDOM         LGT RAIN  37  37 100 E15       30.03F
WORTHINGTON    MIX PCPN  37  35  92 E16       30.01S
JACKSON        LGT RAIN  36  36 100 E14G21    30.02S
TRACY          DRIZZLE   39  37  93 E10       30.06S
SLAYTON        DRIZZLE   36  35  96 E18       30.04S
$$
MNZ065>067-074>077-082>085-091>093-300400-
   South Central Minnesota

CITY           SKY/WX    TMP DP  RH WIND       PRES   REMARKS
MANKATO        LGT RAIN  40  37  89 E16       30.06F
NEW ULM        CLOUDY    39  37  93 E13       30.06F
ST JAMES       LGT RAIN  39  37  93 E15G23    30.05F
FAIRMONT       LGT RAIN  40  37  89 E21       30.02F
GLENCOE        DRIZZLE   41  41 100 E14       30.09F
FARIBAULT      LGT RAIN  39  39 100 E9        30.08F
OWATONNA       LGT RAIN  39  36  87 E20G26    30.06F
WASECA         LGT RAIN  39  36  87 E18G26    30.07S
ALBERT LEA     LGT RAIN  37  37 100 E20G26    30.02F
$$
MNZ078>079-086>088-094>096-300400-
   Southeast Minnesota

CITY           SKY/WX    TMP DP  RH WIND       PRES   REMARKS
ROCHESTER      LGT RAIN  39  37  92 E20G30    30.05F
RED WING       LGT RAIN  43  37  81 E9G18     30.10F
STANTON        LGT RAIN  42  38  86 E15       30.08F
DODGE CENTER   LGT RAIN  37  37 100 E18G29    30.05F
WINONA         LGT RAIN  41  37  87 E14G20    30.12F
AUSTIN         DRIZZLE   39  36  87 E24G33    30.03F
PRESTON        LGT RAIN  39  35  87 E21G29    30.06F
$$
ABBREVIATIONS USED IN REMARKS
   TC - TEMPERATURES IN CELSIUS
  WCI - WIND CHILL INDEX
   HX - HEAT INDEX
  VSB - VISIBILITY
$$




USA.gov is the U.S. government's official web portal to all federal, state and local government web resources and services.